Location: Dal�� Lhota
(48.7500°N, 14.0167°E)
Time: 22:29:06
(UTC+00:00)

Transit 2A - Pass Details

Date: 29 July 2021
Orbit: 594 x 964 km, 66.7° (Epoch: 26 September)

Event Time Altitude Azimuth Distance (km) Brightness Sun altitude
Rises 06:55:50 0° 230° (SW) 2,841 8.6 31.2°
Reaches altitude 10° 06:58:05 10° 237° (WSW) 1,963 7.8 31.6°
Maximum altitude 07:02:20 49° 312° (NW) 827 6.2 32.3°
Drops below altitude 10° 07:06:57 10° 28° (NNE) 2,123 8.6 33.0°
Sets 07:09:28 0° 34° (NE) 3,101 9.4 33.4°
